Big Rapids, MI

9:11 PM EDT on August 25, 2019 (GMT -0400)
Roben-Hood

Weather History for KRQB - July, 2019

Change the Weather History Date:

Sunday, July 21, 2019

  Actual Average Record
Temperature  
Mean Temperature 74 °F -  
Max Temperature 82 °F 81 °F 95 °F (2002)
Min Temperature 65 °F 57 °F 41 °F (1992)
Cooling Degree Days 9    
Growing Degree Days 24 (Base 50)    
Moisture  
Dew Point 59 °F    
Average Humidity 67    
Maximum Humidity 97    
Minimum Humidity 35    
Precipitation  
Precipitation 0.33 in - - ()
Sea Level Pressure  
Sea Level Pressure 29.96 in    
Wind  
Wind Speed 5 mph (North)    
Max Wind Speed 12 mph    
Max Gust Speed 16 mph    
Visibility 10 miles    
Events      
Averages and records for this station are not official NWS values.
T = Trace of Precipitation, MM = Missing Value Source: NWS Daily Summary

Daily Weather History Graph

Daily Weather History Graph

Search for Another Location

Airport or City:

Astronomy

Jul. 21, 2019 Rise Set
Actual Time 6:19 AM EDT 9:16 PM EDT
Civil Twilight 5:45 AM EDT 9:50 PM EDT
Nautical Twilight 5:01 AM EDT 10:34 PM EDT
Astronomical Twilight 4:10 AM EDT 11:25 PM EDT
Moon No Moon Rise 10:46 AM EDT (7/21)
Length of Visible Light 16h 05m
Length of Day
14h 57m
Waning Gibbous, 80% of the Moon is Illuminated
Jul 21
Waning Gibbous
Jul 24
Last Quarter
Jul 31
New
Aug 7
First Quarter
Aug 15
Full

Hourly Weather History & Observations

Time (EDT) Temp. Heat Index Dew Point Humidity Pressure Visibility Wind Dir Wind Speed Gust Speed Precip Events Conditions
12:15 AM 68.4 °F - 66.6 °F 94% 29.92 in 10.0 mi WNW 10.4 mph - N/A   Mostly Cloudy
12:38 AM 68.5 °F - 66.7 °F 94% 29.92 in 10.0 mi West 6.9 mph - 0.01 in   Overcast
12:57 AM 68.5 °F - 66.6 °F 93% 29.92 in 10.0 mi West 6.9 mph - 0.02 in   Overcast
1:15 AM 68.7 °F - 66.7 °F 93% 29.91 in 10.0 mi Calm Calm - N/A   Overcast
1:16 AM 68.7 °F - 66.6 °F 93% 29.91 in 10.0 mi Calm Calm - N/A   Overcast
1:35 AM 67.8 °F - 66.2 °F 95% 29.92 in 10.0 mi West 10.4 mph - 0.01 in   Overcast
1:55 AM 67.5 °F - 66.2 °F 96% 29.92 in 10.0 mi NNE 9.2 mph - 0.02 in   Overcast
2:00 AM 67.6 °F - 66.4 °F 96% 29.92 in 10.0 mi North 6.9 mph - N/A   Overcast
2:18 AM 67.6 °F - 66.4 °F 96% 29.92 in 10.0 mi North 4.6 mph - N/A   Overcast
2:36 AM 68.0 °F - 66.6 °F 95% 29.92 in 10.0 mi Calm Calm - 0.01 in   Overcast
2:55 AM 67.6 °F - 66.4 °F 96% 29.92 in 10.0 mi NNE 6.9 mph - 0.02 in   Overcast
3:15 AM 68.0 °F - 66.6 °F 95% 29.93 in 10.0 mi NNW 4.6 mph - N/A   Overcast
3:16 AM 68.0 °F - 66.6 °F 95% 29.93 in 10.0 mi North 6.9 mph - N/A   Overcast
3:39 AM 67.6 °F - 66.4 °F 96% 29.93 in 10.0 mi Calm Calm - 0.01 in   Overcast
3:56 AM 67.6 °F - 66.2 °F 95% 29.93 in 10.0 mi West 9.2 mph - 0.01 in   Mostly Cloudy
4:15 AM 66.7 °F - 65.3 °F 95% 29.93 in 7.0 mi Calm Calm - N/A   Overcast
4:16 AM 66.7 °F - 65.5 °F 96% 29.93 in 7.0 mi Calm Calm - N/A   Overcast
4:35 AM 66.7 °F - 65.5 °F 96% 29.92 in 10.0 mi Calm Calm - N/A   Overcast
4:59 AM 66.7 °F - 65.7 °F 96% 29.93 in 7.0 mi Calm Calm - 0.01 in   Overcast
5:17 AM 66.7 °F - 65.7 °F 96% 29.94 in 10.0 mi Calm Calm - 0.01 in   Overcast
5:35 AM 66.4 °F - 65.3 °F 96% 29.94 in 7.0 mi North 6.9 mph - 0.01 in   Overcast
5:36 AM 66.4 °F - 65.3 °F 96% 29.95 in 7.0 mi NNE 8.1 mph - 0.01 in   Overcast
5:55 AM 66.7 °F - 65.8 °F 97% 29.95 in 10.0 mi Calm Calm - 0.01 in   Overcast
6:15 AM 66.4 °F - 65.5 °F 97% 29.96 in 7.0 mi WNW 3.5 mph - 0.01 in   Overcast
6:20 AM 66.6 °F - 65.7 °F 97% 29.96 in 7.0 mi West 8.1 mph - 0.01 in   Overcast
6:38 AM 66.2 °F - 65.3 °F 97% 29.96 in 7.0 mi Calm Calm - 0.01 in   Mostly Cloudy
6:56 AM 66.2 °F - 65.3 °F 97% 29.96 in 5.0 mi Calm Calm - 0.02 in   Scattered Clouds
7:15 AM 66.9 °F - 66.0 °F 97% 29.98 in 10.0 mi Calm Calm - N/A   Clear
7:16 AM 67.1 °F - 66.0 °F 96% 29.98 in 10.0 mi Calm Calm - N/A   Clear
7:35 AM 66.7 °F - 65.7 °F 96% 29.98 in 10.0 mi Calm Calm - N/A   Clear
7:40 AM 67.3 °F - 66.2 °F 96% 29.98 in 10.0 mi Calm Calm - 0.01 in   Clear
7:58 AM 68.4 °F - 66.7 °F 95% 29.98 in 10.0 mi North 4.6 mph - 0.01 in   Clear
8:16 AM 68.4 °F - 65.7 °F 91% 29.98 in 10.0 mi NNE 8.1 mph - N/A   Clear
8:35 AM 69.8 °F - 64.8 °F 84% 29.98 in 10.0 mi NNE 4.6 mph - 0.01 in   Clear
8:36 AM 69.8 °F - 64.8 °F 84% 29.98 in 10.0 mi North 5.8 mph - 0.01 in   Clear
8:55 AM 70.5 °F - 63.7 °F 79% 29.98 in 10.0 mi NNE 9.2 mph - 0.01 in   Scattered Clouds
9:19 AM 71.4 °F - 62.2 °F 73% 29.98 in 10.0 mi NE 3.5 mph - 0.01 in   Mostly Cloudy
9:37 AM 72.5 °F - 62.2 °F 70% 29.98 in 10.0 mi Calm Calm - 0.01 in   Mostly Cloudy
9:55 AM 72.9 °F - 61.5 °F 67% 29.98 in 10.0 mi Calm Calm - 0.02 in   Overcast
9:56 AM 72.9 °F - 61.3 °F 67% 29.98 in 10.0 mi Calm Calm - 0.02 in   Overcast
10:15 AM 73.8 °F - 60.1 °F 62% 29.98 in 10.0 mi Calm Calm - N/A   Scattered Clouds
10:19 AM 74.1 °F - 59.5 °F 60% 29.97 in 10.0 mi Calm Calm - N/A   Scattered Clouds
10:38 AM 75.4 °F - 56.7 °F 52% 29.97 in 10.0 mi NE 4.6 mph - 0.01 in   Clear
10:56 AM 76.1 °F - 52.9 °F 44% 29.97 in 10.0 mi NNE 6.9 mph - 0.01 in   Clear
11:15 AM 76.5 °F - 52.7 °F 43% 29.97 in 10.0 mi ENE 6.9 mph - 0.01 in   Clear
11:36 AM 76.6 °F - 53.4 °F 44% 29.97 in 10.0 mi NNE 9.2 mph - 0.01 in   Clear
11:59 AM 77.5 °F - 52.3 °F 41% 29.97 in 10.0 mi NE 5.8 mph - 0.01 in   Clear
12:17 PM 78.3 °F - 52.5 °F 41% 29.97 in 10.0 mi NNE 9.2 mph - 0.01 in   Clear
12:35 PM 79.0 °F - 53.1 °F 40% 29.98 in 10.0 mi NNE 4.6 mph - 0.01 in   Clear
12:55 PM 79.3 °F - 52.0 °F 38% 29.98 in 10.0 mi East 4.6 mph - 0.02 in   Scattered Clouds
12:56 PM 79.2 °F - 52.2 °F 39% 29.98 in 10.0 mi East 4.6 mph - 0.02 in   Scattered Clouds
1:15 PM 80.6 °F - 51.8 °F 37% 29.99 in 10.0 mi NNE 4.6 mph - N/A   Scattered Clouds
1:38 PM 80.4 °F - 52.7 °F 38% 29.98 in 10.0 mi North 3.5 mph - 0.01 in   Scattered Clouds
1:56 PM 81.0 °F 80.4 °F 53.4 °F 38% 29.98 in 10.0 mi Calm Calm - 0.01 in   Clear
2:15 PM 80.2 °F - 52.0 °F 37% 29.98 in 10.0 mi Calm Calm - 0.01 in   Clear
2:16 PM 80.2 °F - 52.2 °F 38% 29.98 in 10.0 mi NNE 5.8 mph - 0.01 in   Clear
2:35 PM 81.0 °F 80.4 °F 53.4 °F 38% 29.99 in 10.0 mi ESE 4.6 mph - 0.01 in   Clear
2:36 PM 81.0 °F 80.4 °F 53.2 °F 38% 29.99 in 10.0 mi East 4.6 mph - 0.01 in   Clear
2:59 PM 81.3 °F - 52.3 °F 37% 29.98 in 10.0 mi NNE 4.6 mph - 0.02 in   Clear
3:17 PM 81.0 °F 80.4 °F 53.1 °F 38% 29.98 in 10.0 mi NNE 3.5 mph - N/A   Clear
3:35 PM 81.9 °F 81.0 °F 53.4 °F 37% 29.97 in 10.0 mi North 5.8 mph - 0.01 in   Clear
3:55 PM 82.0 °F 81.3 °F 54.3 °F 38% 29.97 in 10.0 mi North 3.5 mph - 0.01 in   Clear
3:56 PM 82.0 °F 81.3 °F 54.1 °F 38% 29.97 in 10.0 mi NNW 4.6 mph - 0.01 in   Clear
4:15 PM 80.6 °F 80.5 °F 55.2 °F 42% 29.96 in 10.0 mi North 5.8 mph - 0.01 in   Clear
4:38 PM 81.9 °F 81.2 °F 54.3 °F 39% 29.95 in 10.0 mi NNW 5.8 mph - 0.01 in   Clear
4:56 PM 81.5 °F 80.9 °F 54.0 °F 39% 29.96 in 10.0 mi North 6.9 mph - 0.02 in   Scattered Clouds
5:15 PM 81.9 °F - 52.5 °F 36% 29.96 in 10.0 mi NNW 5.8 mph - N/A   Scattered Clouds
5:35 PM 79.9 °F - 53.8 °F 40% 29.96 in 10.0 mi NNW 5.8 mph - 0.01 in   Clear
5:59 PM 80.2 °F 80.1 °F 54.0 °F 40% 29.96 in 10.0 mi NNW 5.8 mph 16.1 mph 0.01 in   Clear
6:16 PM 80.8 °F - 50.9 °F 35% 29.97 in 10.0 mi NNW 5.8 mph - 0.01 in   Clear
6:35 PM 80.1 °F - 52.5 °F 38% 29.96 in 10.0 mi North 6.9 mph - 0.01 in   Clear
6:36 PM 80.1 °F - 52.7 °F 39% 29.96 in 10.0 mi North 6.9 mph - 0.01 in   Clear
6:55 PM 79.7 °F - 54.1 °F 41% 29.96 in 10.0 mi North 4.6 mph - 0.01 in   Clear
6:56 PM 79.5 °F - 54.1 °F 41% 29.96 in 10.0 mi North 4.6 mph - 0.01 in   Clear
7:19 PM 78.3 °F - 55.9 °F 46% 29.96 in 10.0 mi NNW 3.5 mph - 0.01 in   Scattered Clouds
7:37 PM 78.4 °F - 55.6 °F 45% 29.96 in 10.0 mi North 6.9 mph 16.1 mph 0.01 in   Scattered Clouds
7:55 PM 77.4 °F - 54.7 °F 45% 29.96 in 10.0 mi North 3.5 mph - 0.02 in   Clear
8:16 PM 76.6 °F - 55.6 °F 48% 29.97 in 10.0 mi NNW 4.6 mph - N/A   Clear
8:35 PM 74.1 °F - 57.9 °F 57% 29.98 in 10.0 mi North 5.8 mph - N/A   Clear
8:59 PM 72.7 °F - 57.0 °F 58% 29.98 in 10.0 mi NNE 6.9 mph - 0.01 in   Clear
9:17 PM 71.6 °F - 55.8 °F 57% 29.99 in 10.0 mi NNE 9.2 mph - N/A   Clear
9:36 PM 70.2 °F - 55.9 °F 61% 29.99 in 10.0 mi North 10.4 mph - 0.01 in   Clear
9:55 PM 69.8 °F - 55.6 °F 61% 30.00 in 10.0 mi North 10.4 mph - 0.01 in   Clear
10:15 PM 69.1 °F - 55.8 °F 62% 30.00 in 10.0 mi NNE 10.4 mph - N/A   Clear
10:19 PM 68.9 °F - 55.9 °F 63% 30.00 in 10.0 mi North 11.5 mph - N/A   Clear
10:36 PM 68.2 °F - 56.3 °F 66% 30.00 in 10.0 mi North 9.2 mph - N/A   Clear
10:56 PM 67.3 °F - 56.7 °F 69% 30.01 in 10.0 mi NNE 8.1 mph - 0.01 in   Clear
11:15 PM 67.1 °F - 57.2 °F 70% 30.01 in 10.0 mi North 8.1 mph - N/A   Clear
11:35 PM 66.4 °F - 57.6 °F 73% 30.00 in 10.0 mi North 8.1 mph - N/A   Clear
11:40 PM 66.2 °F - 57.7 °F 74% 30.00 in 10.0 mi North 6.9 mph - N/A   Clear
11:58 PM 65.7 °F - 58.1 °F 77% 30.00 in 10.0 mi North 4.6 mph - 0.01 in   Clear